Regional Weather Roundup
Issued by NWS

Home | Current Version | Previous Version | Text Only | Print | Product List | Glossary Off
Versions: 1 2 3 4 5 6 7 8 9 10 11 12 13 14 15 16 17 18 19 20 21 22 23 24 25 26 27 28 29 30 31 32 33 34 35 36 37 38 39 40 41 42 43 44 45 46 47 48 49 50

000
ASUS43 KDTX 221910
RWRMI
MICHIGAN HOURLY REGIONAL WEATHER ROUNDUP
NATIONAL WEATHER SERVICE DETROIT/PONTIAC MI
300 PM EDT FRI JUL 22 2016

NOTE: "FAIR" INDICATES FEW OR NO CLOUDS BELOW 12,000 FEET WITH NO
SIGNIFICANT WEATHER AND/OR OBSTRUCTION TO VISIBILITY.

MIZ047>049-052>055-059>063-066>070-074>076-081>083-222000-
SOUTHEAST LOWER MICHIGAN

CITY           SKY/WX    TMP DP  RH WIND       PRES   REMARKS
ADRIAN         SUNNY     88  70  55 W7        30.03F HX  93
ALMA           SUNNY     90  70  52 MISG      29.98S HX  95
ANN ARBOR      SUNNY     91  71  51 SW14G20   30.00F HX  97
BAD AXE        SUNNY     89  60  37 W12G17    29.96S
CARO           SUNNY     92  72  51 W8G16     29.95S HX  98
DETROIT CITY   SUNNY     93  66  40 W14       29.97F HX  96
DETROIT        MOSUNNY   95  67  39 SW14      29.99F HX  99
FLINT          SUNNY     97  66  36 W15G23    29.97F HX 100
GROSSE ILE     MOSUNNY   86  74  66 S12       29.98S HX  94
HOWELL         SUNNY     91  66  42 W10G17    30.00S HX  94

CITY           SKY/WX    TMP DP  RH WIND       PRES   REMARKS
JACKSON        SUNNY     88  69  53 W12       30.02F HX  92
LAMBERTVILLE   MOSUNNY   92  70  49 NW6       30.02F HX  97
LANSING        SUNNY     90  67  46 W15       30.00S HX  93
LAPEER         FAIR      93  64  38 W12G18    29.97S HX  95
MASON          SUNNY     89  68  49 W10G18    30.01S HX  92
MONROE         SUNNY     90  73  56 W8        30.00S HX  98
MT. CLEMENS    MOSUNNY   90  72  55 S12G18    29.94F HX  96
PONTIAC        PTSUNNY   90  67  46 W13G23    29.98F HX  93
PORT HOPE        N/A     85  68  56 VRB3      29.93S
PORT HURON     SUNNY     90  68  48 SW8       29.95F HX  93
TRI CITIES     MOSUNNY   89  72  56 W14       29.96F HX  96
MIDLAND        PTSUNNY   91  69  49 W8        29.94F HX  95
TROY           SUNNY     94  62  35 W10G21    30.00S HX  94
SAGINAW HB     MOSUNNY   90  68  48 SW12      29.96S HX  93
$$
MIZ043>046-050>051-056>058-064>065-071>073-077>080-222000-
SOUTHWEST LOWER MICHIGAN

CITY           SKY/WX    TMP DP  RH WIND       PRES   REMARKS
BATTLE CREEK   CLOUDY    85  69  58 VRB5      30.04R
BENTON HARBOR  CLOUDY    84  67  56 W13       30.03F
BIG RAPIDS     SUNNY     89  69  50 SW7       29.98S HX  93
COLDWATER      SUNNY     87  70  57 W8        30.03F HX  92
FREMONT        FAIR      86  69  56 W5        30.00S HX  90
HOLLAND        SUNNY     82  68  62 W8        30.03F
GRAND RAPIDS   MOSUNNY   86  68  54 SW13G20   30.02S
IONIA          FAIR      88  65  46 SW13G18   29.99F HX  90
KALAMAZOO      SUNNY     88  69  53 W8        30.03S HX  92
LUDINGTON      SUNNY     78  70  76 SW8       30.00S
MARSHALL       CLOUDY    88  68  51 W10       30.03R HX  92
MOUNT PLEASANT SUNNY     91  68  46 W6G17     29.96F HX  95
MUSKEGON       MOSUNNY   80  68  66 SW9       30.02F
SOUTH HAVEN    MOSUNNY   80  68  66 W9G16     30.03F
$$
MIZ016>042-222000-
NORTHERN LOWER MICHIGAN

CITY           SKY/WX    TMP DP  RH WIND       PRES   REMARKS
ALPENA         SUNNY     92  57  30 W8        29.92F HX  90
BEAVER ISLAND  SUNNY     84  64  50 W8        29.95F
BELLAIRE       SUNNY     86  57  37 W7        29.96F
CADILLAC       SUNNY     90  59  34 W12       29.99S
CHARLEVOIX     SUNNY     83  62  49 W7        29.99F
FRANKFORT      SUNNY     78  67  69 W7        29.99S
GAYLORD        SUNNY     86  57  37 W10G18    29.98S
GRAYLING       SUNNY     89  57  33 W15G21    29.99S
HARBOR SPRINGS SUNNY     76  67  72 W8        29.96S
HOUGHTON LAKE  SUNNY     91  54  28 NW13      29.98S
MANISTEE       SUNNY     81  68  64 W12       30.00R
OSCODA         SUNNY     90  60  36 SE6       29.91S
PELLSTON       SUNNY     88  60  38 W14G21    29.95S
ROGERS CITY    SUNNY     83  60  45 N8        29.93S
TRAVERSE CITY  SUNNY     90  59  35 NW8       29.95S
$$
MIZ007>008-015-222000-
EASTERN UPPER MICHIGAN

CITY           SKY/WX    TMP DP  RH WIND       PRES   REMARKS
KINROSS        SUNNY     85  62  46 NW14G23   29.91F
MACKINAC ISLAN SUNNY     78  65  63 SW8       29.93S
NEWBERRY       SUNNY     87  59  39 W13G22    29.93S HAZE
S. S. MARIE    SUNNY     81  63  54 NW8       29.91S
MUNISING         N/A     80  64  58 NE14      29.93R
$$
MIZ004>006-011>014-085-222000-
CENTRAL UPPER MICHIGAN

CITY           SKY/WX    TMP DP  RH WIND       PRES   REMARKS
MANISTIQUE     SUNNY     91  55  29 NW12      29.93S
ESCANABA       SUNNY     91  55  29 N9        29.93S
MENOMINEE      SUNNY     89  63  41 VRB6      29.96F HX  90
SAWYER-GWINN   SUNNY     90  54  29 W14G28    29.96F
$$
MIZ001>003-009>011-084-222000-
WESTERN UPPER MICHIGAN

CITY           SKY/WX    TMP DP  RH WIND       PRES   REMARKS
IRON MOUNTAIN  SUNNY     92  53  26 W14G23    29.97F
HOUGHTON       SUNNY     85  60  42 W17G30    29.94F
COPPER HARBOR    N/A     85  61  44 N15G29    29.89S
IRONWOOD       SUNNY     88  61  40 W8        29.98S
$$

ABBREVIATIONS USED IN REMARKS
   TC - TEMPERATURE IN CELSIUS
  WCI - WIND CHILL INDEX
   HX - HEAT INDEX
  VSB - VISIBILITY





USA.gov is the U.S. government's official web portal to all federal, state and local government web resources and services.